Station FTPC1 - 9414290 - San Francisco, CA Image indicating link to RSS feed of recent meteorological observations for station FTPC1


Conditions at FTPC1 as of
(8:00 pm PDT on 07/15/2024)
0300 GMT on 07/16/2024:
     

Click on the graph icon in the table below to see a time series plot of the last five days of that observation.

5-day plot - Wind Direction Wind Direction (WDIR): SW ( 230 deg true )
5-day plot - Wind Speed Wind Speed (WSPD): 7.0 kts
5-day plot - Wind Gust Wind Gust (GST): 13.0 kts
5-day plot - Atmospheric Pressure Atmospheric Pressure (PRES):30.00 in
5-day plot - Pressure Tendency Pressure Tendency (PTDY):-0.02 in ( Falling )
5-day plot - Air Temperature Air Temperature (ATMP): 60.4 °F
5-day plot - Wind Speed at 10 Meters Wind Speed at 10 meters (WSPD10M): 7.8 kts
5-day plot - Wind Speed at 20 Meters Wind Speed at 20 meters (WSPD20M): 7.8 kts
5-day plot -  Wind Speed, Wind Gust and Atmospheric Pressure Combined plot of Wind Speed, Gust, and Air Pressure
NOS Water Level Observation Network Water Level
Previous observations
TIME
(PDT)
5-day plot - Wind Direction
WDIR
 
5-day plot - Wind Speed
WSPD
kts
5-day plot - Wind Gust
GST
kts
5-day plot - Wave Height
WVHT
ft
5-day plot - Dominant Wave Period
DPD
sec
5-day plot - Average Wave Period
APD
sec
5-day plot - Mean Wave Direction
MWD
 
5-day plot - Atmospheric Pressure
PRES
in
5-day plot - Pressure Tendency
PTDY
in
5-day plot - Air Temperature
ATMP
°F
5-day plot - Water Temperature
WTMP
°F
5-day plot - Dew Point
DEWP
°F
5-day plot - Salinity
SAL
psu
5-day plot - Visibility
VIS
nmi
5-day plot - Tide (above MLLW)
TIDE
ft
2024-07-15 07:54 pm SW 8.9 13.0----30.00- 60.4-----
2024-07-15 07:48 pm SW 7.0 14.0----30.00- 60.6-----
2024-07-15 07:42 pm SW 6.0 12.0----30.00- 61.0-----
2024-07-15 07:36 pm SW 4.1 8.0----30.00- 61.3-----
2024-07-15 07:30 pm SW 2.9 7.0----30.00- 61.3-----
2024-07-15 07:24 pmWSW 5.1 9.9----30.00- 61.2-----
2024-07-15 07:18 pmWSW 5.1 9.9----30.00- 61.5-----
2024-07-15 07:12 pm SW 4.1 11.1----30.00- 61.3-----
2024-07-15 07:06 pmWSW 7.0 11.1----30.00- 61.0-----
2024-07-15 07:00 pm SW 8.0 13.0----30.00-0.03 61.0-----
2024-07-15 06:54 pmWSW 8.0 11.1----30.01- 61.0-----
2024-07-15 06:48 pm SW 8.0 14.0----30.01- 61.0-----
2024-07-15 06:42 pm SW 8.0 14.0----30.01- 61.2-----
2024-07-15 06:36 pm SW 7.0 17.1----30.01- 61.2-----
2024-07-15 06:30 pmWSW 8.9 15.0----30.01- 61.2-----
2024-07-15 06:24 pmWSW 6.0 14.0----30.01- 61.2-----
2024-07-15 06:18 pmWSW 8.0 14.0----30.01- 61.2-----
2024-07-15 06:12 pm SW 7.0 13.0----30.01- 61.3-----
2024-07-15 06:06 pm SW 8.9 15.0----30.01- 61.3-----
2024-07-15 06:00 pmWSW 8.0 14.0----30.01-0.04 61.9-----
2024-07-15 05:54 pmWSW 8.0 15.0----30.01- 61.3-----
2024-07-15 05:48 pm SW 7.0 15.0----30.01- 61.5-----
2024-07-15 05:42 pm SW 8.9 14.0----30.01- 61.7-----
2024-07-15 05:36 pm SW 7.0 13.0----30.01- 61.7-----
2024-07-15 05:30 pmWSW 9.9 18.1----30.01- 61.3-----
2024-07-15 05:24 pm SW 8.9 15.9----30.01- 61.3-----
2024-07-15 05:18 pmWSW 7.0 13.0----30.01- 61.7-----
2024-07-15 05:12 pmWSW 8.0 15.9----30.02- 61.5-----
2024-07-15 05:06 pmWSW 6.0 13.0----30.02- 61.9-----
2024-07-15 05:00 pm W 8.0 14.0----30.02-0.04------
2024-07-15 04:54 pmWSW 9.9 17.1----30.02-------
2024-07-15 04:48 pm W 8.0 14.0----30.02-------
2024-07-15 04:42 pm W 6.0 13.0----30.02-------
2024-07-15 04:36 pm W 8.0 13.0----30.03-------
2024-07-15 04:30 pmWSW 9.9 15.9----30.03-------
2024-07-15 04:24 pmWSW 8.9 17.1----30.03-------
2024-07-15 04:18 pmWSW 11.1 17.1----30.03- 61.5-----
2024-07-15 04:12 pm SW 12.0 19.0----30.03- 61.3-----
2024-07-15 04:06 pmWSW 9.9 15.9----30.03- 61.7-----
2024-07-15 04:00 pmWSW 11.1 17.1----30.03-0.05 61.2-----
2024-07-15 03:54 pmWSW 9.9 15.9----30.04- 61.7-----
2024-07-15 03:48 pmWSW 8.9 17.1----30.04-------
2024-07-15 03:42 pmWSW 8.9 15.9----30.04-------
2024-07-15 03:36 pmWSW 8.9 15.0----30.04-------
2024-07-15 03:30 pmWSW 8.0 15.0----30.04- 61.7-----
2024-07-15 03:24 pmWSW 9.9 17.1----30.05- 61.3-----
2024-07-15 03:18 pm-------30.05- 61.3-----
2024-07-15 03:12 pm-------30.05- 62.4-----
2024-07-15 03:06 pm-------30.05- 61.9-----
2024-07-15 03:00 pm SW 8.0 15.0----30.05-0.04 62.4-----
2024-07-15 02:54 pm SW 9.9 17.1----30.05- 62.1-----
2024-07-15 02:48 pm SW 7.0 12.0------ 61.9-----
2024-07-15 02:42 pm W 9.9 15.9------ 61.2-----
2024-07-15 02:36 pm W 8.9 14.0------ 61.3-----
2024-07-15 02:30 pm W 13.0 17.1----30.06- 60.6-----
2024-07-15 02:24 pm W 8.0 15.0----30.06- 60.8-----
2024-07-15 02:18 pm W 8.9 15.0----30.06- 61.0-----
2024-07-15 02:12 pm W 7.0 13.0----30.06- 61.2-----
2024-07-15 02:06 pm W 8.9 18.1----30.06- 60.8-----
2024-07-15 02:00 pm W 8.0 15.9----30.06-0.03------
2024-07-15 01:54 pm W 6.0 13.0----30.06-------
2024-07-15 01:48 pm W 11.1 15.9----30.06- 60.6-----
2024-07-15 01:42 pmWSW 6.0 11.1----30.07- 61.2-----
2024-07-15 01:36 pm W 11.1 15.0----30.07- 60.4-----
2024-07-15 01:30 pm W 8.9 15.0----30.07- 60.4-----
2024-07-15 01:24 pm W 8.9 13.0----30.07- 61.2-----
2024-07-15 01:18 pm W 7.0 15.9----30.08- 60.8-----
2024-07-15 01:12 pm W 7.0 12.0----30.08- 60.6-----
2024-07-15 01:06 pm W 6.0 12.0----30.08- 61.2-----
2024-07-15 01:00 pm W 8.0 12.0----30.08-0.02 60.6-----
2024-07-15 12:54 pm W 8.0 14.0----30.08- 60.3-----
2024-07-15 12:48 pm W 8.9 12.0----30.09-------
2024-07-15 12:42 pmWSW 6.0 13.0----30.09-------
2024-07-15 12:36 pm W 5.1 12.0----30.09-------
2024-07-15 12:30 pm W 7.0 11.1----30.09- 60.1-----
2024-07-15 12:24 pmWSW 6.0 8.9----30.09- 60.1-----
2024-07-15 12:18 pm W 8.0 13.0----30.09- 59.7-----
2024-07-15 12:12 pm W 8.9 13.0----30.09- 59.7-----
2024-07-15 12:06 pm W 5.1 14.0----30.09- 59.7-----
2024-07-15 12:00 pm W 6.0 12.0----30.09+0.00 59.4-----
2024-07-15 11:54 am W 6.0 9.9----30.09- 59.9-----
2024-07-15 11:48 am SW 7.0 11.1----30.09- 59.9-----
2024-07-15 11:42 amWSW 7.0 12.0----30.09- 60.1-----
2024-07-15 11:36 am SW 6.0 12.0----30.09- 59.9-----
2024-07-15 11:30 am W 5.1 9.9----30.09- 60.1-----
2024-07-15 11:24 amWSW 5.1 9.9----30.09- 59.7-----
2024-07-15 11:18 amWSW 5.1 13.0----30.09- 59.5-----
2024-07-15 11:12 am SW 6.0 11.1----30.09- 59.2-----
2024-07-15 11:06 amWSW 5.1 9.9----30.09- 59.5-----
2024-07-15 11:00 amWSW 7.0 12.0----30.09+0.00 59.4-----
2024-07-15 10:54 am SW 6.0 9.9----30.09- 59.4-----
2024-07-15 10:48 amWSW 6.0 11.1----30.10- 59.2-----
2024-07-15 10:42 am SW 5.1 13.0----30.10- 59.0-----
2024-07-15 10:36 amWSW 6.0 8.9----30.10- 59.0-----
2024-07-15 10:30 am SW 4.1 9.9----30.10- 59.0-----
2024-07-15 10:24 amSSW 6.0 8.0----30.10- 59.0-----
2024-07-15 10:18 am SW 5.1 9.9----30.10- 58.6-----
2024-07-15 10:12 amWSW 5.1 9.9----30.10- 58.5-----
2024-07-15 10:06 am SW 6.0 9.9----30.10- 58.3-----
2024-07-15 10:00 am SW 5.1 8.9----30.10+0.02 58.5-----
2024-07-15 09:54 amWSW 6.0 8.9----30.10- 58.5-----
2024-07-15 09:48 am SW 2.9 6.0----30.10- 58.6-----
2024-07-15 09:42 amWSW 4.1 6.0----30.10- 58.3-----
2024-07-15 09:36 am SW 4.1 8.0----30.09- 58.3-----
2024-07-15 09:30 amWSW 6.0 8.9----30.10- 58.1-----
2024-07-15 09:24 am W 5.1 8.0----30.09- 58.1-----
2024-07-15 09:18 amWNW 4.1 6.0----30.09- 57.9-----
2024-07-15 09:12 amWSW 6.0 8.9----30.10- 57.9-----
2024-07-15 09:06 amWSW 5.1 8.9----30.09- 57.9-----
2024-07-15 09:00 am SW 4.1 8.9----30.09+0.03 57.9-----
2024-07-15 08:54 amWSW 5.1 7.0----30.09- 57.7-----
2024-07-15 08:48 am W 5.1 7.0----30.09- 57.9-----
2024-07-15 08:42 amWSW 4.1 7.0----30.09- 57.7-----
2024-07-15 08:36 am W 4.1 8.0----30.09- 57.7-----
2024-07-15 08:30 amWSW 5.1 8.0----30.09- 57.6-----
2024-07-15 08:24 amWSW 5.1 7.0----30.09- 57.6-----
2024-07-15 08:18 amWSW 5.1 8.0----30.09- 57.6-----
2024-07-15 08:12 amSSW 1.9 5.1----30.09- 57.6-----
2024-07-15 08:06 amSSW 5.1 8.0----30.09- 57.4-----
2024-07-15 08:00 amWSW 2.9 8.9----30.09+0.02 57.2-----
2024-07-15 07:54 amSSW 2.9 7.0----30.09- 57.2-----
2024-07-15 07:48 amWSW 1.9 6.0----30.09- 57.2-----
2024-07-15 07:42 am W 4.1 7.0----30.09- 57.0-----
2024-07-15 07:36 amWSW 5.1 7.0----30.09- 57.0-----
2024-07-15 07:30 amSSW 5.1 8.0----30.08- 57.0-----
2024-07-15 07:24 am SW 6.0 8.9----30.08- 56.8-----
2024-07-15 07:18 am W 7.0 8.9----30.08- 56.8-----
2024-07-15 07:12 amWSW 6.0 9.9----30.08- 56.8-----
2024-07-15 07:06 amWSW 4.1 8.9----30.08- 56.8-----
2024-07-15 07:00 am W 4.1 9.9----30.08+0.02 56.8-----
2024-07-15 06:54 amSSW 4.1 9.9----30.08- 56.8-----
2024-07-15 06:48 am SW 5.1 9.9----30.08- 56.7-----
2024-07-15 06:42 amWSW 2.9 8.0----30.07- 56.7-----
2024-07-15 06:36 amSSW 6.0 9.9----30.07- 56.7-----
2024-07-15 06:30 am SW 6.0 9.9----30.07- 56.7-----
2024-07-15 06:24 am W 1.9 8.9----30.07- 56.7-----
2024-07-15 06:18 am SW 6.0 11.1----30.07- 56.7-----
2024-07-15 06:12 amSSW 5.1 9.9----30.07- 56.7-----
2024-07-15 06:06 am SW 7.0 8.9----30.07- 56.7-----
2024-07-15 06:00 am SW 4.1 8.0----30.07+0.02 56.5-----
2024-07-15 05:54 am SW 2.9 8.0----30.07- 56.5-----
2024-07-15 05:48 am SW 6.0 8.9----30.07- 56.5-----
2024-07-15 05:42 amSSW 6.0 12.0----30.07- 56.7-----
2024-07-15 05:36 amSSW 4.1 6.0----30.06- 56.7-----
2024-07-15 05:30 amWSW 2.9 8.9----30.06- 56.7-----
2024-07-15 05:24 am SW 7.0 11.1----30.06- 56.5-----
2024-07-15 05:18 amSSW 7.0 9.9----30.06- 56.7-----
2024-07-15 05:12 am SW 6.0 13.0----30.06- 56.5-----
2024-07-15 05:06 am SW 8.9 12.0----30.06- 56.5-----
2024-07-15 05:00 amWSW 2.9 13.0----30.06+0.01 56.5-----
2024-07-15 04:54 am SW 7.0 11.1----30.06- 56.5-----
2024-07-15 04:48 am SW 6.0 12.0----30.06- 56.5-----
2024-07-15 04:42 amSSW 7.0 12.0----30.06- 56.5-----
2024-07-15 04:36 am SW 4.1 11.1----30.06- 56.5-----
2024-07-15 04:30 amSSW 5.1 8.9----30.06- 56.5-----
2024-07-15 04:24 amSSW 6.0 8.0----30.06- 56.5-----
2024-07-15 04:18 amSSW 4.1 8.9----30.06- 56.7-----
2024-07-15 04:12 am SW 4.1 13.0----30.05- 56.5-----
2024-07-15 04:06 amSSW 6.0 11.1----30.05- 56.7-----
2024-07-15 04:00 am SW 4.1 8.0----30.05+0.00 56.5-----
2024-07-15 03:54 am SW 2.9 12.0----30.05- 56.5-----
2024-07-15 03:48 amSSW 5.1 12.0----30.05- 56.5-----
2024-07-15 03:42 amWSW 1.9 9.9----30.05- 56.5-----
2024-07-15 03:36 amSSW 6.0 11.1----30.05- 56.5-----
2024-07-15 03:30 am SW 5.1 9.9----30.05- 56.5-----
2024-07-15 03:24 amSSW 5.1 11.1----30.05- 56.5-----
2024-07-15 03:18 am SW 2.9 6.0----30.05- 56.7-----
2024-07-15 03:12 am W 6.0 8.9----30.05- 56.5-----
2024-07-15 03:06 amSSW 5.1 8.0----30.05- 56.5-----
2024-07-15 03:00 amSSW 7.0 11.1----30.04+0.00 56.5-----
2024-07-15 02:54 amSSW 6.0 9.9----30.04- 56.5-----
2024-07-15 02:48 amSSW 5.1 12.0----30.05- 56.5-----
2024-07-15 02:42 amSSW 7.0 11.1----30.04- 56.7-----
2024-07-15 02:36 amSSW 5.1 8.0----30.05- 56.7-----
2024-07-15 02:30 amSSW 5.1 11.1----30.05- 56.7-----
2024-07-15 02:24 amSSW 6.0 9.9----30.05- 56.7-----
2024-07-15 02:18 amSSW 5.1 12.0----30.05- 56.7-----
2024-07-15 02:12 am S 8.0 12.0----30.05- 56.7-----
2024-07-15 02:06 amSSW 5.1 9.9----30.05- 56.7-----
2024-07-15 02:00 amSSW 5.1 11.1----30.05+0.00 56.7-----
2024-07-15 01:54 amSSW 7.0 12.0----30.05- 56.7-----
2024-07-15 01:48 am SW 6.0 8.9----30.05- 56.7-----
2024-07-15 01:42 am SW 5.1 8.0----30.05- 56.8-----
2024-07-15 01:36 am SW 4.1 7.0----30.05- 56.8-----
2024-07-15 01:30 amSSW 4.1 8.0----30.05- 56.8-----
2024-07-15 01:24 amSSW 5.1 8.0----30.05- 56.8-----
2024-07-15 01:18 amSSW 2.9 8.9----30.05- 56.7-----
2024-07-15 01:12 amSSW 5.1 7.0----30.05- 56.7-----
2024-07-15 01:06 amSSW 1.9 5.1----30.05- 56.7-----
2024-07-15 01:00 amWSW 2.9 9.9----30.05+0.00 56.5-----
2024-07-15 12:54 amWSW 5.1 7.0----30.05- 56.7-----
2024-07-15 12:48 am SW 5.1 8.9----30.05- 56.7-----
2024-07-15 12:42 am W 6.0 9.9----30.05- 56.7-----
2024-07-15 12:36 am SW 5.1 11.1----30.04- 56.7-----
2024-07-15 12:30 am SW 8.0 12.0----30.04- 56.8-----
2024-07-15 12:24 am SW 5.1 11.1----30.05- 56.8-----
2024-07-15 12:18 am SW 6.0 11.1----30.05- 56.8-----
2024-07-15 12:12 am SW 5.1 9.9----30.05- 56.8-----
2024-07-15 12:06 am SW 5.1 9.9----30.05- 57.0-----
2024-07-15 12:00 amWSW 5.1 8.0----30.05+0.02 57.0-----
2024-07-14 11:54 pm SW 6.0 8.9----30.05- 56.8-----
2024-07-14 11:48 pm SW 6.0 8.9----30.05- 57.0-----
2024-07-14 11:42 pm W 5.1 11.1----30.05- 57.0-----
2024-07-14 11:36 pm W 1.9 8.9----30.05- 57.0-----
2024-07-14 11:30 pmWSW 5.1 11.1----30.05- 57.0-----
2024-07-14 11:24 pm W 2.9 5.1----30.05- 57.0-----
2024-07-14 11:18 pmWSW 4.1 8.0----30.05- 57.0-----
2024-07-14 11:12 pmWSW 7.0 11.1----30.05- 56.8-----
2024-07-14 11:06 pmWSW 5.1 8.9----30.05- 57.0-----
2024-07-14 11:00 pm SW 7.0 12.0----30.05+0.03 57.0-----
2024-07-14 10:54 pmWSW 4.1 8.0----30.05- 57.2-----
2024-07-14 10:48 pm SW 2.9 7.0----30.05-------
2024-07-14 10:42 pmWNW 1.9 6.0----30.05-------
2024-07-14 10:36 pm SW 5.1 9.9----30.05-------
2024-07-14 10:30 pmWSW 5.1 9.9----30.05- 57.0-----
2024-07-14 10:24 pm W 2.9 11.1----30.05- 57.2-----
2024-07-14 10:18 pmWSW 4.1 11.1----30.05- 57.2-----
2024-07-14 10:12 pm SW 5.1 12.0----30.05- 57.0-----
2024-07-14 10:06 pm W 8.0 14.0----30.05- 57.2-----
2024-07-14 10:00 pmWSW 6.0 12.0----30.05+0.03 57.2-----
2024-07-14 09:54 pm SW 6.0 13.0----30.04- 57.4-----
2024-07-14 09:48 pm SW 2.9 8.0----30.04- 57.4-----
2024-07-14 09:42 pm SW 6.0 17.1----30.04- 57.4-----
2024-07-14 09:36 pmWSW 4.1 9.9----30.04- 57.6-----
2024-07-14 09:30 pm SW 5.1 11.1----30.04-------
2024-07-14 09:24 pm W 5.1 15.9----30.04-------
2024-07-14 09:18 pm SW 6.0 11.1----30.03- 57.4-----
2024-07-14 09:12 pm SW 6.0 14.0----30.03- 57.6-----
2024-07-14 09:06 pmWSW 8.0 13.0----30.03- 57.4-----
2024-07-14 09:00 pmWSW 8.9 15.0----30.03+0.01 57.6-----
2024-07-14 08:54 pm W 4.1 9.9----30.03- 57.6-----
2024-07-14 08:48 pm W 7.0 14.0----30.03- 57.6-----
2024-07-14 08:42 pmWSW 6.0 12.0----30.03- 57.6-----
2024-07-14 08:36 pm SW 8.0 15.0----30.03- 57.7-----
2024-07-14 08:30 pmWSW 6.0 12.0----30.03- 57.7-----
2024-07-14 08:24 pmSSW 6.0 11.1----30.03- 57.9-----
2024-07-14 08:18 pm SW 5.1 8.9----30.02- 57.9-----
2024-07-14 08:12 pm SW 5.1 12.0----30.02- 57.7-----
2024-07-14 08:06 pmWSW 5.1 8.0----30.02- 57.7-----
2024-07-14 08:00 pmSSW 6.0 12.0----30.02+0.00 57.9-----
2024-07-14 07:54 pm SW 4.1 9.9----30.02- 57.9-----